Benson, United Kingdom

8:15 AM BST on August 23, 2017 (GMT +0100)
Benson Air Base

Weather History for EGUB - November, 2012

Change the Weather History Date:

Monday, November 5, 2012

  Actual Average Record
Temperature  
Mean Temperature 38 °F -  
Max Temperature 48 °F 47 °F 60 °F (2010)
Min Temperature 28 °F 37 °F 27 °F (2016)
Degree Days  
Heating Degree Days 27    
Moisture  
Dew Point 34 °F    
Average Humidity 89    
Maximum Humidity 100    
Minimum Humidity 58    
Precipitation  
Precipitation 0.00 in - - ()
Sea Level Pressure  
Sea Level Pressure 29.75 in    
Wind  
Wind Speed 3 mph ()    
Max Wind Speed 13 mph    
Max Gust Speed -    
Visibility 5.2 miles    
Events Fog    
Averages and records for this station are not official NWS values.
T = Trace of Precipitation, MM = Missing Value Source: Averaged Metar Reports

Daily Weather History Graph

Daily Weather History Graph

Search for Another Location

Airport or City:

Trip Planner

Search our weather history database for the weather conditions in past years. The results will help you decide how hot, cold, wet, or windy it might be!

Date:

Astronomy

Nov. 05, 2012 Rise Set
Actual Time 7:05 AM GMT 4:29 PM GMT
Civil Twilight 6:29 AM GMT 5:05 PM GMT
Nautical Twilight 5:50 AM GMT 5:44 PM GMT
Astronomical Twilight 5:11 AM GMT 6:23 PM GMT
Moon 9:51 PM GMT (11/5) 12:19 PM GMT (11/5)
Length of Visible Light 10h 35m
Length of Day
9h 23m
Waning Gibbous, 65% of the Moon is Illuminated
Nov 5
Waning Gibbous
Nov 7
Last Quarter
Nov 13
New
Nov 20
First Quarter
Nov 28
Full

Hourly Weather History & Observations

Time (GMT) Temp. Windchill Dew Point Humidity Pressure Visibility Wind Dir Wind Speed Gust Speed Precip Events Conditions
12:50 AM 30.2 °F - 28.4 °F 93% 29.47 in 3.1 mi North 2.3 mph - N/A   Partly Cloudy
1:50 AM 30.2 °F - 28.4 °F 93% 29.47 in 0.2 mi North 1.2 mph - N/A   Mostly Cloudy
2:50 AM 33 °F - 33 °F 99% 29.52 in 0 mi North 3.5 mph - -   Mostly Cloudy
2:50 AM 33.8 °F 30.8 °F 33.8 °F 100% 29.50 in 0.1 mi North 3.5 mph - N/A   Mostly Cloudy
3:50 AM 35.6 °F 31.7 °F 35.6 °F 100% 29.50 in 0.1 mi North 4.6 mph - N/A   Unknown
4:50 AM 35.6 °F - 35.6 °F 100% 29.53 in 1.1 mi NW 2.3 mph - N/A   Overcast
5:50 AM 35 °F - 35 °F 100% 29.59 in 1 mi NNW 4.6 mph - - Fog Light Fog
5:50 AM 35.6 °F 31.7 °F 35.6 °F 100% 29.56 in 1.0 mi NNW 4.6 mph - N/A   Mostly Cloudy
6:50 AM 35.6 °F 32.8 °F 35.6 °F 100% 29.59 in 1.4 mi North 3.5 mph - N/A   Scattered Clouds
7:50 AM 35.6 °F 31.7 °F 35.6 °F 100% 29.62 in 2.2 mi NNE 4.6 mph - N/A   Scattered Clouds
8:50 AM 38 °F - 38 °F 100% 29.68 in 3 mi NNW 4.6 mph - -   Mist
8:50 AM 39.2 °F 35.9 °F 37.4 °F 93% 29.65 in 3.1 mi NNW 4.6 mph - N/A   Scattered Clouds
9:50 AM 41.0 °F 36.4 °F 37.4 °F 87% 29.68 in 6.2 mi North 6.9 mph - N/A   Scattered Clouds
10:50 AM 42.8 °F 40.1 °F 39.2 °F 87% 29.71 in 6.2 mi NNE 4.6 mph - N/A   Partly Cloudy
11:50 AM 45 °F - 39 °F 72% 29.76 in 16 mi North 3.5 mph - -   Scattered Clouds
11:50 AM 44.6 °F 43.1 °F 39.2 °F 81% 29.74 in 6.2 mi North 3.5 mph - N/A   Partly Cloudy
12:50 PM 48.2 °F - 39.2 °F 71% 29.77 in 6.2 mi North 8.1 mph - N/A   Partly Cloudy
1:50 PM 46.4 °F 40.7 °F 35.6 °F 66% 29.77 in 6.2 mi North 12.7 mph - N/A   Partly Cloudy
2:50 PM 47 °F - 37 °F 58% 29.82 in 19 mi NNW 6.9 mph - -   Scattered Clouds
2:50 PM 46.4 °F 42.9 °F 37.4 °F 71% 29.80 in 6.2 mi NNW 6.9 mph - N/A   Partly Cloudy
3:50 PM 44.6 °F 42.2 °F 37.4 °F 76% 29.83 in 6.2 mi NNW 4.6 mph - N/A   Partly Cloudy
4:50 PM 42.8 °F 41.1 °F 37.4 °F 81% 29.86 in 6.2 mi NW 3.5 mph - N/A   Partly Cloudy
5:50 PM 33 °F - 31 °F 87% 29.90 in 12 mi NNW 1.2 mph - -   Scattered Clouds
5:50 PM 32.0 °F - 30.2 °F 93% 29.89 in 6.2 mi NNW 1.2 mph - N/A   Partly Cloudy
6:50 PM 37.4 °F - 35.6 °F 93% 29.92 in 6.2 mi WNW 2.3 mph - N/A   Partly Cloudy
7:50 PM 32.0 °F - 30.2 °F 93% 29.95 in 6.2 mi NW 1.2 mph - N/A   Partly Cloudy
8:50 PM 29 °F - 28 °F 95% 29.99 in 7 mi ESE 1.2 mph - -   Scattered Clouds
8:50 PM 30.2 °F - 28.4 °F 93% 29.95 in 6.2 mi ESE 1.2 mph - N/A   Partly Cloudy
9:50 PM 28.4 °F - 26.6 °F 93% 29.98 in - ESE 1.2 mph - N/A   Clear
10:50 PM 30.2 °F - 30.2 °F 100% 30.01 in - Calm Calm - N/A   Clear
11:50 PM 28 °F - 27 °F 93% 30.05 in 6 mi Calm Calm - -  
11:50 PM 28.4 °F - 26.6 °F 93% 30.04 in - Calm Calm - N/A   Clear